Hourly Weather Holohirky

Today, 16 April, Friday

Time Temperature Precipitation Wind Pressure Humidity
00:00 -1°C° 0.7 mm 5 mps 734 mmHg 97%
01:00 -1°C° 0.7 mm 5 mps 734 mmHg 97%
02:00 -1°C° 0 mm 5 mps 733 mmHg 97%
03:00 -1°C° 1.1 mm 5 mps 733 mmHg 98%
04:00 -2°C° 1.1 mm 5 mps 733 mmHg 98%
05:00 -3°C° 1.1 mm 6 mps 733 mmHg 98%
06:00 -3°C° 1.4 mm 6 mps 733 mmHg 98%
07:00 -3°C° 1.4 mm 6 mps 733 mmHg 98%
08:00 -3°C° 0 mm 6 mps 732 mmHg 99%
09:00 -3°C° 0.9 mm 6 mps 733 mmHg 99%
10:00 -3°C° 0.9 mm 6 mps 733 mmHg 99%
11:00 -3°C° 0.9 mm 6 mps 733 mmHg 99%
12:00 -2°C° 0.6 mm 6 mps 733 mmHg 99%
13:00 -2°C° 0.6 mm 6 mps 733 mmHg 99%
14:00 -2°C° 0.6 mm 6 mps 733 mmHg 99%
15:00 -2°C° 0.4 mm 6 mps 733 mmHg 99%
16:00 -2°C° 0.4 mm 6 mps 733 mmHg 99%
17:00 -2°C° 0.4 mm 6 mps 734 mmHg 99%
18:00 -2°C° 0.1 mm 6 mps 734 mmHg 99%
19:00 -2°C° 0.1 mm 6 mps 734 mmHg 98%
20:00 -2°C° 0.1 mm 6 mps 734 mmHg 98%
21:00 -1°C° 0.3 mm 5 mps 734 mmHg 98%
22:00 -1°C° 0.3 mm 5 mps 734 mmHg 98%
23:00 -1°C° 0.3 mm 5 mps 734 mmHg 99%

Tomorrow, 17 April, Saturday

Time Temperature Precipitation Wind Pressure Humidity
00:00 -1°C° 0.4 mm 5 mps 735 mmHg 99%
01:00 -1°C° 0.4 mm 5 mps 735 mmHg 99%
02:00 -1°C° 0.4 mm 5 mps 735 mmHg 99%
03:00 -1°C° 0.4 mm 5 mps 735 mmHg 99%
04:00 -1°C° 0.4 mm 5 mps 735 mmHg 99%
05:00 -1°C° 0.4 mm 4 mps 735 mmHg 99%
06:00 -1°C° 0.1 mm 4 mps 736 mmHg 99%
07:00 -1°C° 0.1 mm 4 mps 736 mmHg 99%
08:00 0°C° 0.1 mm 3 mps 736 mmHg 99%
09:00 +1°C° 0.1 mm 3 mps 736 mmHg 99%
10:00 +1°C° 0.1 mm 3 mps 737 mmHg 99%
11:00 +1°C° 0.1 mm 3 mps 737 mmHg 98%
12:00 +2°C° 0 mm 3 mps 737 mmHg 98%
13:00 +3°C° 0 mm 2 mps 737 mmHg 97%
14:00 +3°C° 0 mm 2 mps 737 mmHg 97%
15:00 +4°C° 0 mm 2 mps 737 mmHg 96%
16:00 +5°C° 0 mm 1 mps 737 mmHg 96%
17:00 +5°C° 0 mm 1 mps 737 mmHg 95%
18:00 +4°C° 0 mm 1 mps 737 mmHg 96%
19:00 +4°C° 0 mm 1 mps 737 mmHg 96%
20:00 +3°C° 0 mm 1 mps 737 mmHg 97%
21:00 +3°C° 0 mm 1 mps 737 mmHg 97%
22:00 +3°C° 0 mm 1 mps 737 mmHg 98%
23:00 +2°C° 0 mm 0 mps 737 mmHg 98%

Day after tomorrow, 18 April, Sunday

Time Temperature Precipitation Wind Pressure Humidity
00:00 +2°C° 0 mm 0 mps 737 mmHg 97%
01:00 +2°C° 0 mm 0 mps 737 mmHg 96%
02:00 +2°C° 0 mm 0 mps 737 mmHg 96%
03:00 +2°C° 0 mm 0 mps 737 mmHg 95%
04:00 +3°C° 0 mm 1 mps 737 mmHg 95%
05:00 +3°C° 0 mm 1 mps 736 mmHg 95%
06:00 +3°C° 0 mm 1 mps 736 mmHg 94%
07:00 +4°C° 0 mm 1 mps 736 mmHg 93%
08:00 +4°C° 0 mm 1 mps 736 mmHg 92%
09:00 +6°C° 0 mm 1 mps 736 mmHg 88%
10:00 +7°C° 0 mm 1 mps 736 mmHg 84%
11:00 +9°C° 0 mm 1 mps 736 mmHg 80%
12:00 +10°C° 0 mm 1 mps 736 mmHg 75%
13:00 +11°C° 0 mm 1 mps 736 mmHg 71%
14:00 +10°C° 0 mm 2 mps 736 mmHg 67%
15:00 +10°C° 0 mm 2 mps 735 mmHg 68%
16:00 +12°C° 0 mm 2 mps 735 mmHg 69%
17:00 +12°C° 0 mm 2 mps 735 mmHg 70%
18:00 +9°C° 0 mm 2 mps 735 mmHg 76%
19:00 +8°C° 0 mm 2 mps 735 mmHg 82%
20:00 +7°C° 0 mm 2 mps 735 mmHg 88%
21:00 +7°C° 0 mm 2 mps 735 mmHg 90%
22:00 +7°C° 0 mm 2 mps 735 mmHg 92%
23:00 +7°C° 0 mm 2 mps 735 mmHg 93%

19 April, Monday

Time Temperature Precipitation Wind Pressure Humidity
00:00 +6°C° 0 mm 2 mps 735 mmHg 94%
01:00 +6°C° 0 mm 2 mps 735 mmHg 95%
02:00 +6°C° 0 mm 2 mps 735 mmHg 95%
03:00 +6°C° 0 mm 2 mps 734 mmHg 95%
04:00 +6°C° 0 mm 2 mps 734 mmHg 95%
05:00 +5°C° 0 mm 2 mps 734 mmHg 95%
06:00 +6°C° 0 mm 2 mps 734 mmHg 92%
07:00 +5°C° 0 mm 3 mps 734 mmHg 89%
08:00 +5°C° 0 mm 3 mps 734 mmHg 87%
09:00 +7°C° 0 mm 3 mps 734 mmHg 80%
10:00 +9°C° 0 mm 3 mps 734 mmHg 73%
11:00 +10°C° 0 mm 3 mps 734 mmHg 67%
12:00 +10°C° 0 mm 3 mps 733 mmHg 62%
13:00 +11°C° 0 mm 3 mps 733 mmHg 58%
14:00 +12°C° 0 mm 3 mps 732 mmHg 54%
15:00 +11°C° 0.1 mm 4 mps 732 mmHg 58%
16:00 +11°C° 0.1 mm 4 mps 732 mmHg 63%
17:00 +10°C° 0.1 mm 4 mps 731 mmHg 68%
18:00 +9°C° 0 mm 3 mps 731 mmHg 73%
19:00 +8°C° 0 mm 3 mps 731 mmHg 79%
20:00 +7°C° 0 mm 3 mps 731 mmHg 85%
21:00 +5°C° 0 mm 3 mps 731 mmHg 87%
22:00 +5°C° 0 mm 2 mps 731 mmHg 89%
23:00 +4°C° 0 mm 2 mps 730 mmHg 90%

20 April, Tuesday

Time Temperature Precipitation Wind Pressure Humidity
00:00 +4°C° 0 mm 2 mps 730 mmHg 91%
01:00 +3°C° 0 mm 2 mps 730 mmHg 92%
02:00 +3°C° 0 mm 2 mps 730 mmHg 93%
03:00 +3°C° 0 mm 2 mps 729 mmHg 93%
04:00 +3°C° 0 mm 2 mps 729 mmHg 94%
05:00 +3°C° 0 mm 2 mps 729 mmHg 94%
06:00 +2°C° 0 mm 3 mps 729 mmHg 93%
07:00 +3°C° 0 mm 3 mps 729 mmHg 91%
08:00 +4°C° 0 mm 4 mps 729 mmHg 90%
09:00 +5°C° 0.1 mm 5 mps 728 mmHg 82%
10:00 +7°C° 0.1 mm 5 mps 728 mmHg 74%
11:00 +8°C° 0.1 mm 6 mps 728 mmHg 66%
12:00 +8°C° 0.2 mm 6 mps 728 mmHg 65%
13:00 +8°C° 0.2 mm 6 mps 728 mmHg 64%
14:00 +9°C° 0.2 mm 7 mps 728 mmHg 63%
15:00 +9°C° 0.2 mm 7 mps 728 mmHg 66%
16:00 +8°C° 0.2 mm 7 mps 728 mmHg 68%
17:00 +8°C° 0.2 mm 6 mps 728 mmHg 70%
18:00 +7°C° 0 mm 6 mps 728 mmHg 75%
19:00 +6°C° 0 mm 5 mps 728 mmHg 81%
20:00 +5°C° 0 mm 4 mps 728 mmHg 86%
21:00 +3°C° 0 mm 5 mps 728 mmHg 89%
22:00 +3°C° 0 mm 5 mps 728 mmHg 91%
23:00 +3°C° 0 mm 6 mps 728 mmHg 93%

21 April, Wednesday

Time Temperature Precipitation Wind Pressure Humidity
00:00 +2°C° 0 mm 5 mps 729 mmHg 93%
01:00 +2°C° 0 mm 5 mps 729 mmHg 93%
02:00 +2°C° 0 mm 5 mps 729 mmHg 93%
03:00 +2°C° 0 mm 5 mps 729 mmHg 92%
04:00 +1°C° 0 mm 5 mps 729 mmHg 92%
05:00 +1°C° 0 mm 5 mps 729 mmHg 91%
06:00 +2°C° 0 mm 5 mps 730 mmHg 88%
07:00 +3°C° 0 mm 5 mps 730 mmHg 85%
08:00 +4°C° 0 mm 6 mps 730 mmHg 82%
09:00 +5°C° 0.1 mm 6 mps 731 mmHg 76%
10:00 +8°C° 0.1 mm 6 mps 731 mmHg 69%
11:00 +9°C° 0.1 mm 7 mps 731 mmHg 63%
12:00 +10°C° 0.1 mm 7 mps 731 mmHg 60%
13:00 +11°C° 0.1 mm 6 mps 731 mmHg 57%
14:00 +11°C° 0.1 mm 6 mps 731 mmHg 53%
15:00 +12°C° 0.1 mm 5 mps 732 mmHg 55%
16:00 +12°C° 0.1 mm 5 mps 732 mmHg 56%
17:00 +12°C° 0.1 mm 4 mps 732 mmHg 58%
18:00 +11°C° 0 mm 3 mps 732 mmHg 64%
19:00 +9°C° 0 mm 2 mps 733 mmHg 70%
20:00 +9°C° 0 mm 1 mps 733 mmHg 76%
21:00 +8°C° 0 mm 1 mps 733 mmHg 77%
22:00 +8°C° 0 mm 1 mps 734 mmHg 78%
23:00 +7°C° 0 mm 2 mps 734 mmHg 80%
Show more